Location: Schommer Observatory
(40.5200°N, 74.4500°W)
Time: 06:52:37
(UTC-05:00)

ISS - Pass Details

Date: 15 November 2017
Orbit: 402 x 407 km, 51.6° (Epoch: 21 November)

Event Time Altitude Azimuth Distance (km) Brightness Sun altitude
Exits shadow 05:06:17 33° 356° (N) 697 -2.8 -18.7°
Maximum altitude 05:07:01 39° 30° (NNE) 622 -2.8 -18.5°
Drops below altitude 10° 05:10:05 10° 101° (E) 1,449 0.3 -18.0°
Sets 05:12:15 0° 109° (ESE) 2,306 1.6 -17.6°
